Regional Weather Roundup
Issued by NWS

Home | Current Version | Previous Version | Graphics & Text | Print | Product List | Glossary On
Versions: 1 2 3 4 5 6 7 8 9 10 11 12 13 14 15 16 17 18 19 20 21 22 23 24 25 26 27 28 29 30 31 32 33 34 35 36 37 38 39 40 41 42 43 44 45 46 47 48 49 50
000
ASUS43 KLMK 250410
RWRKY
KENTUCKY REGIONAL WEATHER ROUNDUP
NATIONAL WEATHER SERVICE LOUISVILLE KY
1200 AM EDT FRI APR 25 2014

NOTE "FAIR" INDICATES FEW OR NO CLOUDS BELOW 12,000 FEET
WITH NO SIGNIFICANT WEATHER AND/OR OBSTRUCTIONS TO VISIBILITY.

KYZ001>023-026-027-061>063-070>075-250500-
WESTERN AND SOUTH CENTRAL KENTUCKY

CITY           SKY/WX    TMP DP  RH WIND       PRES   REMARKS
PADUCAH        CLOUDY    63  59  87 S6        29.68F
HENDERSON      CLOUDY    61  54  77 SW9       29.71S
OWENSBORO      LGT RAIN  63  54  72 VRB6      29.71R
HOPKINSVILLE   LGT RAIN  64  64 100 S12G23    29.71F
BOWLING GREEN  CLOUDY    72  48  42 SW10      29.75R
GLASGOW        CLOUDY    70  43  38 S7        29.74S
$$

KYZ024-025-028>034-038-045-046-053-250500-
NORTH CENTRAL KENTUCKY

CITY           SKY/WX    TMP DP  RH WIND       PRES   REMARKS
LOUISVILLE/SDF MOCLDY    65  43  44 SE6       29.72F
LOUISVILLE/LOU MOCLDY    67  42  40 E6        29.73F
FORT KNOX      MOCLDY    68  41  37 SE7       29.72F
$$

KYZ035>037-039>044-047>052-055>060-089>105-250500-
NORTHEAST KENTUCKY

CITY           SKY/WX    TMP DP  RH WIND       PRES   REMARKS
LEXINGTON      PTCLDY    63  36  36 SE9       29.78F
COVINGTON      CLOUDY    60  28  29 SE13      29.78F
FRANKFORT      CLEAR     58  39  49 SE7       29.76S
$$

KYZ054-064>069-076>088-106>120-250500-
SOUTHEAST KENTUCKY

CITY           SKY/WX    TMP DP  RH WIND       PRES   REMARKS
JACKSON        CLEAR     63  30  28 CALM      29.84F
LONDON         CLEAR     64  35  34 CALM      29.83S
SOMERSET       PTCLDY    64  34  32 S3        29.81F
MIDDLESBORO    CLEAR     53  44  72 CALM      29.86F
MONTICELLO     CLEAR     65  43  44 S6        29.81F
$$




USA.gov is the U.S. government's official web portal to all federal, state and local government web resources and services.